Location: Peyton Hall Observatory
(40.3466°N, 74.6516°W)
Time: 23:39:48
(UTC-04:00)

ISS - All Passes

Search period start: 01 May 2016 00:00
Search period end: 11 May 2016 00:00
Orbit: 402 x 405 km, 51.6° (Epoch: 01 May)

Date Brightness Start Highest point End Pass type
(mag) Time Alt. Az. Time Alt. Az. Time Alt. Az.
01 May - 07:27:54 10° S 07:30:28 21° SE 07:33:02 10° E daylight
01 May - 09:03:38 10° WSW 09:06:45 41° NNW 09:09:53 10° NE daylight
01 May - 10:42:08 10° NW 10:43:53 14° NNW 10:45:40 10° NNE daylight
01 May - 12:19:53 10° NNW 12:21:27 13° N 12:23:00 10° NE daylight
01 May - 13:55:41 10° NW 13:58:41 33° NNE 14:01:40 10° E daylight
01 May - 15:32:12 10° WNW 15:35:05 29° SW 15:37:57 10° SSE daylight
02 May - 06:37:13 10° SSE 06:38:13 11° SE 06:39:13 10° ESE daylight
02 May - 08:10:58 10° WSW 08:14:14 76° NW 08:17:30 10° NE daylight
02 May - 09:48:53 10° WNW 09:51:08 17° NNW 09:53:22 10° NNE daylight
02 May - 11:27:24 10° NNW 11:28:38 12° N 11:29:52 10° NNE daylight
02 May - 13:03:23 10° NNW 13:06:02 22° NNE 13:08:40 10° ENE daylight
02 May - 14:39:29 10° WNW 14:42:43 58° SW 14:45:56 10° SE daylight
03 May - 07:18:35 10° SW 07:21:46 53° SE 07:24:58 10° ENE daylight
03 May - 08:55:44 10° W 08:58:25 23° NNW 09:01:07 10° NNE daylight
03 May - 10:34:32 10° NNW 10:35:48 12° N 10:37:04 10° NNE daylight
03 May - 12:11:07 10° NNW 12:13:19 16° NNE 12:15:30 10° ENE daylight
03 May - 13:46:59 10° NW 13:50:15 70° NE 13:53:29 10° ESE daylight
03 May - 15:24:56 10° WSW 15:26:18 12° SW 15:27:39 10° SSW daylight
04 May - 06:26:36 10° SSW 06:29:24 26° SE 06:32:12 10° ENE daylight
04 May - 08:02:44 10° W 08:05:46 35° NNW 08:08:49 10° NE daylight
04 May - 09:41:22 10° NW 09:42:58 13° N 09:44:35 10° NNE daylight
04 May - 11:18:49 10° NNW 11:20:31 13° N 11:22:14 10° NE daylight
04 May - 12:54:35 10° NW 12:57:41 38° NNE 13:00:47 10° E daylight
04 May - 14:31:21 10° WNW 14:34:00 23° SW 14:36:40 10° S daylight
05 May - 05:35:19 10° SSE 05:37:05 14° SE 05:38:51 10° E daylight
05 May - 07:09:57 10° WSW 07:13:12 61° NNW 07:16:26 10° NE daylight
05 May - 08:48:05 10° NW 08:50:09 16° NNW 08:52:15 10° NNE daylight
05 May - 10:26:22 10° NNW 10:27:41 12° N 10:29:00 10° NNE daylight
05 May - 12:02:15 10° NNW 12:05:02 25° NNE 12:07:48 10° E daylight
05 May - 13:38:29 10° WNW 13:41:37 46° SW 13:44:45 10° SSE daylight
06 May - 06:17:26 10° SW 06:20:40 68° SE 06:23:55 10° ENE daylight
06 May - 07:54:51 10° WNW 07:57:24 21° NNW 07:59:58 10° NNE daylight
06 May - 09:33:37 10° NNW 09:34:50 12° N 09:36:02 10° NNE daylight
06 May - 11:09:58 10° NNW 11:12:18 18° NNE 11:14:39 10° ENE daylight
06 May - 12:45:53 10° NW 12:49:10 87° NE 12:52:25 10° SE daylight
07 May - 05:25:16 10° SSW 05:28:14 33° SE 05:31:13 10° ENE daylight
07 May - 07:01:46 10° W 07:04:42 30° NNW 07:07:38 10° NE daylight
07 May - 08:40:29 10° NW 08:41:58 12° N 08:43:26 10° NNE daylight
07 May - 10:17:38 10° NNW 10:19:30 14° NNE 10:21:22 10° NE daylight
07 May - 11:53:25 10° NW 11:56:35 46° NNE 11:59:45 10° ESE daylight
07 May - 13:30:26 10° W 13:32:50 19° SW 13:35:12 10° S daylight
08 May - 04:33:39 10° S 04:35:52 17° SE 04:38:06 10° E visible
08 May - 06:08:52 10° WSW 06:12:04 50° NNW 06:15:15 10° NE daylight
08 May - 07:47:10 10° NW 07:49:07 15° NNW 07:51:03 10° NNE daylight
08 May - 09:25:14 10° NNW 09:26:39 12° N 09:28:04 10° NNE daylight
08 May - 11:01:03 10° NW 11:03:57 28° NNE 11:06:49 10° E daylight
08 May - 12:37:24 10° WNW 12:40:26 36° SW 12:43:28 10° SSE daylight
09 May - 05:16:14 10° SW 05:19:29 85° SE 05:22:46 10° NE visible
09 May - 06:53:53 10° WNW 06:56:18 19° NNW 06:58:43 10° NNE daylight
09 May - 08:32:34 10° NNW 08:33:46 12° N 08:34:58 10° NNE daylight
09 May - 10:08:43 10° NNW 10:11:12 20° NNE 10:13:41 10° ENE daylight
09 May - 11:44:42 10° NW 11:47:59 76° SW 11:51:13 10° SE daylight
10 May - 04:23:54 10° SSW 04:27:00 41° SE 04:30:06 10° ENE visible
10 May - 06:00:43 10° W 06:03:32 26° NNW 06:06:22 10° NE daylight
10 May - 07:39:30 10° NNW 07:40:52 12° N 07:42:13 10° NNE daylight
10 May - 09:16:22 10° NNW 09:18:23 15° NNE 09:20:24 10° NE daylight
10 May - 10:52:11 10° NW 10:55:24 56° NE 10:58:36 10° ESE daylight
10 May - 12:29:33 10° W 12:31:32 15° SW 12:33:33 10° SSW daylight
